Regional Weather Roundup
Issued by NWS Upton, NY

Current Version | Previous Version | Graphics & Text | Print | Product List | Glossary Off
Versions: 1 2 3 4 5 6 7 8 9 10 11 12 13 14 15 16 17 18 19 20 21 22 23 24 25 26 27 28 29 30 31 32 33 34 35 36 37 38 39 40 41 42 43 44 45 46 47 48 49 50

245
ASUS41 KOKX 221108
RWROKX

REGIONAL WEATHER ROUNDUP
NATIONAL WEATHER SERVICE NEW YORK NY
600 AM EST SUN JAN 22 2017

NOTE: "FAIR" INDICATES FEW OR NO CLOUDS BELOW 12,000 FEET WITH NO
SIGNIFICANT WEATHER AND/OR OBSTRUCTIONS TO VISIBILITY.

NYZ071-072-176-178-NJZ106-104-221200-
NEW YORK CITY METRO AREA

CITY           SKY/WX    TMP DP  RH WIND       PRES   REMARKS
Central Park   CLOUDY    43  43 100 CALM      29.75R FOG
Wall St Helipt CLOUDY    44  43  96 W5        29.75R
LaGuardia APRT CLOUDY    46  43  89 NE6       29.73R FOG
Kennedy INTL   FOG       44  44 100 S7        29.75R VSB 1/8
Breezy Point     N/A     41 N/A N/A S1          N/A
Newark/Liberty FOG       44  44 100 CALM      29.74R VSB 1/2
Teterboro      FOG       45  44  97 CALM      29.73R VSB 1/2
$$

NYZ177-179-078>081-221200-
LONG ISLAND NEW YORK

CITY           SKY/WX    TMP DP  RH WIND       PRES   REMARKS
Jones Beach      N/A     41 N/A N/A S2          N/A
Matinecock PT    N/A     43 N/A N/A CALM        N/A
Farmingdale    FOG       44  43  96 S3        29.74R VSB 1/2
MacArthur/ISP  FOG       43  43 100 CALM      29.73S VSB 1/8
Shirley        FOG       42  42 100 CALM      29.74R VSB 1/4
Westhampton    FOG       41  39  93 NE5       29.75S VSB 1/4
Southampton    NOT AVBL
Bridgehampton  NOT AVBL
East Hampton   CLOUDY    40  40  99 CALM      29.74R FOG
Montauk          N/A     41  41 100 NE3       29.76S
$$

NYZ052-065-067-221200-
HUDSON VALLEY

CITY           SKY/WX    TMP DP  RH WIND       PRES   REMARKS
White Plains   FOG       43  42  97 CALM      29.71R VSB 1/4
Newburgh       FOG       39  39 100 CALM      29.73S VSB 1/2
Montgomery     FOG       40  40 100 CALM      29.71S VSB 1/4
Poughkeepsie   CLOUDY    39  38  96 CALM      29.72S FOG
Albany         FOG       39  37  92 N5        29.75R VSB 1
$$

NJZ001-105-106-008-010-013-015-019>022-104-221200-
NEW JERSEY

CITY           SKY/WX    TMP DP  RH WIND       PRES   REMARKS
Newark/Liberty FOG       44  44 100 CALM      29.74R VSB 1/2
Teterboro      FOG       45  44  97 CALM      29.73R VSB 1/2
Caldwell       FOG       43  43 100 CALM      29.74R VSB 1/2
Somerville     FOG       43  42  97 NW3       29.72R VSB 1/4
Linden         CLOUDY    44  44 100 CALM      29.74R FOG
Sussex         NOT AVBL
Andover          N/A     40  40 100 CALM      29.73R
Trenton        FOG       44  44 100 CALM      29.72S VSB 1/4
Millville      LGT RAIN  46  46 100 NE6       29.68F FOG
Atlantic City  LGT RAIN  45  44  97 E3        29.69F FOG
Wrightstown    CLOUDY    45  45 100 NE5       29.69F FOG
Toms River     CLOUDY    45  45 100 N5        29.72F
Belmar         FOG       44  44 100 CALM      29.73F VSB 1/2
$$

PAZ047>061-062-071-221200-
EASTERN PENNSYLVANIA

CITY           SKY/WX    TMP DP  RH WIND       PRES   REMARKS
Philadelphia   FOG       45  44  97 NE3       29.71F VSB 1/4
Allentown      FOG       43  40  89 NE3       29.72F VSB 1/4
Scranton       FOG       41  41 100 CALM      29.71R VSB 1/2
$$

CTZ002-004>006-009-010-012-RIZ004-006-007-MAZ004-011-015-221200-
SOUTHERN NEW ENGLAND
 IN CT

CITY           SKY/WX    TMP DP  RH WIND       PRES   REMARKS
Bradley INTL   FOG       38  38 100 CALM      29.75R VSB 1/4
Hartford       CLOUDY    36  36 100 CALM      29.76R FOG
Danbury        CLOUDY    38  37  97 CALM      29.73S FOG
Wtrbury/Oxford CLEAR     39  37  93 E3        29.73F FOG
Bridgeport     FOG       42  40  92 E5        29.74R VSB 1/4
Meriden        FOG       41  39  93 CALM      29.75S VSB 1/4
New Haven      FOG       41  41 100 SE3       29.74S VSB 1/4
Chester        FOG       39  39 100 CALM      29.74S VSB<1/4
Groton         CLOUDY    40  39  97 CALM      29.76R FOG
Wilimantic     FOG       36  35  96 CALM      29.77R VSB 1/4

 IN RI

CITY           SKY/WX    TMP DP  RH WIND       PRES   REMARKS
Providence     MOCLDY    37  35  92 CALM      29.76R FOG
Block Island   NOT AVBL
Westerly       CLOUDY    40  37  89 CALM      29.77R FOG
 IN MA

CITY           SKY/WX    TMP DP  RH WIND       PRES   REMARKS
Boston         MOCLDY    39  38  96 CALM      29.77R
Worcester      CLOUDY    42  40  92 NE5       29.74R
Westfield      FOG       35  35 100 CALM      29.75R VSB 1/2
Provincetown   CLOUDY    38  38 100 SW5       29.77R FOG     WCI  34
Nantucket      FOG       41  40  96 W5        29.76R VSB 1/4
$$

ANZ330-335-338-340-345-350-353-355-221200-
COASTAL MARINE OBSERVATIONS


STATION/POSITION TIME  SKY/WX   TEMP    WIND        PRES    VSBY  WAVE
                                AIR SEA DIR/SP/G                  HT/PER
                 (UTC)          (F)     (DEG/KT/KT) (MB)    (MI)  (FT/S)
NY HARB ENTRANCE 0950            43 44   CALM  /  4 1006.5          3/14
20 S FIRE ISLAND 1050            45 45  270/  2/  4 1006.9          3/14
GREAT SOUTH BAY  NOT AVBL
23 SSW MONTAUK P 0950            44 47  230/  6/ 10 1007.2          3/13
15 E BARNEGAT LI 1030               47                N/A           4/13
HUDSON CANYON    0950            51 51              1006.7          5/13
KINGS POINT      1048            42 40              1006.6
EXECUTION ROCKS  1045            42      CALM  /  2   N/A
CENTRAL LI SOUND 1030            40      50/  6/  6   N/A           0
EASTERN LI SOUND NOT AVBL
ROBBINS REEF     1048            43     180/  4/  5 1007.1
$$


>>>>>>>>>>>>>>>>>>>>>>>>>>>> KEY <<<<<<<<<<<<<<<<<<<<<<<<<<<
>                                                          <
>     SKY/WX - Sky Condition/Present Weather               <
>     TMP    - Temperature in Fahrenheit                   <
>     DP     - Dew Point in Fahrenheit                     <
>     RH     - Relative Humidity in Percent                <
>     WIND   - Direction (from) and Speed in MPH           <
>     PRES   - Mean Sea Level Pressure (inches of Hg)      <
>     WCI    - Wind Chill Index                            <
>     VSB    - VISIBILITY IN MILES                         <
>     HX     - HEAT INDEX                                  <
>     TC     - TEMPERATURE IN CELSIUS                      <
>     VRB    - VARIABLE WIND DIRECTION                     <
>                                                          <
>>>>>>>>>>>>>>>>>>>>>>>>>>>> KEY <<<<<<<<<<<<<<<<<<<<<<<<<<<




USA.gov is the U.S. government's official web portal to all federal, state and local government web resources and services.